This is the latest recevied weather packets stored in our database for station/object K1BWE-1. If no packets are shown the sender has not sent any weather packets the latest 10 day(s).
| Time | Temp. | Humidity | Pressure | Rain* | Wind** | Luminosity | Snow |
|---|---|---|---|---|---|---|---|
| 1777939570 | 19.44° C | 48% | 1015 hPa | 0 mm | - | 69 W/m² | - |
| 1777939268 | 19.44° C | 51% | 1015 hPa | 0 mm | - | 73 W/m² | - |
| 1777938964 | 19.44° C | 52% | 1014.8 hPa | 0 mm | - | 88 W/m² | - |
| 1777938660 | 19.44° C | 46% | 1014.8 hPa | 0 mm | - | 96 W/m² | - |
| 1777938358 | 19.44° C | 46% | 1014.8 hPa | 0 mm | - | 88 W/m² | - |
| 1777938055 | 18.89° C | 46% | 1014.9 hPa | 0 mm | - | 68 W/m² | - |
| 1777937750 | 18.89° C | 45% | 1015.1 hPa | 0 mm | - | 53 W/m² | - |
| 1777937447 | 19.44° C | 47% | 1015.4 hPa | 0 mm | - | 65 W/m² | - |
| 1777937144 | 20° C | 46% | 1015.5 hPa | 0 mm | - | 69 W/m² | - |
| 1777936842 | 20° C | 43% | 1015.6 hPa | 0 mm | - | 63 W/m² | - |
| 1777936538 | 20.56° C | 39% | 1015.6 hPa | 0 mm | - | 66 W/m² | - |
| 1777936234 | 22.22° C | 35% | 1015.8 hPa | 0 mm | - | 56 W/m² | - |
| 1777935931 | 22.22° C | 28% | 1015.8 hPa | 0 mm | - | 67 W/m² | - |
| 1777935630 | 22.22° C | 30% | 1015.4 hPa | 0 mm | - | 58 W/m² | - |
| 1777935326 | 22.78° C | 30% | 1015.5 hPa | 0 mm | - | 60 W/m² | - |
| 1777935023 | 23.33° C | 26% | 1015.6 hPa | 0 mm | - | 82 W/m² | - |
| 1777934720 | 23.89° C | 24% | 1015 hPa | 0 mm | - | 91 W/m² | - |
| 1777934417 | 23.89° C | 24% | 1015 hPa | 0 mm | - | 104 W/m² | - |
| 1777934114 | 23.89° C | 23% | 1015.1 hPa | 0 mm | - | 125 W/m² | - |
| 1777933810 | 23.89° C | 24% | 1015.2 hPa | 0 mm | - | 115 W/m² | - |
| 1777933507 | 24.44° C | 23% | 1015.2 hPa | 0 mm | - | 139 W/m² | - |
| 1777933204 | 24.44° C | 22% | 1015 hPa | 0 mm | - | 160 W/m² | - |
| 1777932901 | 24.44° C | 22% | 1015.1 hPa | 0 mm | - | 181 W/m² | - |
| 1777932598 | 24.44° C | 22% | 1015.3 hPa | 0 mm | - | 146 W/m² | - |
| 1777932294 | 25° C | 22% | 1015.4 hPa | 0 mm | - | 154 W/m² | - |
* Rain latest hour (hover to see other rain measurements)
** Current wind speed in m/s (hover to see current wind gust speed)